Погода в Силикатном

Россия / Республика Мордовия     54°06′32″N   43°53′34″E
темп.,
°C
ветер,
м/с
пор.,
м/с
влажн.,
%
обл.,
%
осадки,
мм/ч
давл.,
гПа
погр.,
м
20 сентября, пн
пн2000:00+7вюв51163100 0.2 1022505
03:00+6в61374100 0.8 1021447
06:00+6вюв71469100 0.4 1021449
09:00+6вюв71474100 1.2 1021551
12:00+7вюв71476100 2.1 1021774
15:00+7вюв71478100 3.8 1021806
18:00+7вюв71582100 2.3 1020812
21:00+7вюв61586100 4.9 1020811
21 сентября, вт
вт2100:00+6вюв71587100 2.6 1019718
03:00+6вюв71488100 3.0 1018646
06:00+6вюв71390100 1.7 1017611
09:00+7вюв61292100 2.9 1017544
12:00+9вюв6985100 0.1 1017708
15:00+11вюв6876100 0.2 1015808
18:00+10в61280100 0.0 1014416
21:00+8в61290100 1.9 1013420
22 сентября, ср
ср2200:00+7вюв51096100 6.8 1012431
03:00+9вюв4997100 9.9 1011317
06:00+9вюв4797100 0.1 1010211
09:00+11вюв349496 0.1 1011305
12:00+11вюв459299 0.1 1011378
15:00+13вюв578566 0.4 1011591
18:00+11ююз487983 0.5 1012282
21:00+7ю499360 0.6 1014305
23 сентября, чт
чт2300:00+8ю498754 0.0 1016416
03:00+5ю349325 0.0 101772
06:00+7ююв2586100 0.0 1017142
09:00+9юв2477100 0.0 1017212
12:00+14юв355641 0.0 1016927
15:00+14вюв666111 0.0 10151002
18:00+10в378998 0.0 1014343
21:00+10юв51184100 0.1 1013546
24 сентября, пт
пт2400:00+10ююв61288100 0.3 1012573
03:00+9ююв51092100 0.9 1012376
06:00+9ююз1296100 3.5 1012119
09:00+8ю1296100 9.3 1012127
12:00+9ююв0192100 1.9 1010222
15:00+9ююв2495100 3.4 1009338
18:00+9ю2497100 1.6 1008335
21:00+8юз2496100 1.8 1007209